#timestamp,LO_Frequency,Hit,StdDev 
1514001615.4,286047000.4,N
1514001635.2,286047001.0,N
1514001655.1,286047000.5,N
1514001656.0,286047000.5,N
1514001675.8,286047000.1,N
1514001695.6,286047002.8,N
1514001715.5,286047004.1,N
1514001735.3,286047003.1,N
1514001755.2,286047005.6,Y
1514001775.9,286047004.2,P
1514001795.7,286047001.5,N
1514001815.6,286047000.1,N
1514001835.4,286046996.6,N
1514001855.2,286046993.5,N
1514001875.1,286046994.5,N
1514001876.0,286046994.5,N
1514001895.8,286046994.3,N
1514001915.7,286046995.7,N
1514001935.5,286046997.9,N
1514001955.3,286046994.9,N
1514001975.2,286046995.4,N
1514001995.0,286046997.5,N
1514001995.9,286046997.5,N
1514002015.8,286046996.2,N
1514002035.6,286046994.0,N
1514002055.4,286046997.3,N
1514002075.3,286046998.2,N
1514002095.1,286047001.1,N
1514002115.8,286046998.4,N
1514002135.7,286047001.1,N
1514002155.5,286046998.1,N
1514002175.4,286047002.6,N
1514002195.2,286047011.9,Y
1514002215.0,286047003.2,P
1514002215.9,286047003.2,N
1514002235.8,286047001.1,N
1514002255.6,286046998.1,N
1514002275.4,286047000.9,N
1514002295.3,286047004.0,N
1514002315.1,286047002.5,N
1514002335.9,286047002.0,N
1514002355.7,286047002.2,N
1514002375.5,286047004.1,N
1514002395.4,286047002.0,N
1514002415.2,286046998.6,N
1514002435.0,286047000.3,N
1514002436.0,286047000.3,N
1514002455.8,286046999.8,N
1514002475.6,286047003.5,N
1514002495.5,286047002.0,N
1514002515.3,286047003.9,N
1514002535.1,286047002.9,N
1514002555.9,286047007.6,Y
1514002575.7,286047007.1,P
1514002595.6,286047005.5,N
1514002615.4,286047001.5,N
1514002635.2,286047003.6,N
1514002655.1,286047002.3,N
1514002656.0,286047002.3,N
1514002675.8,286047001.0,N
1514002695.7,286046999.0,N
1514002715.5,286046998.9,N
1514002735.3,286047001.0,N
1514002755.2,286046999.7,N
1514002775.0,286047000.3,N
1514002775.9,286047000.3,N
1514002795.7,286046998.7,N
1514002815.6,286046996.9,N
1514002835.4,286047001.2,N
1514002855.3,286046999.8,N
1514002875.1,286047000.6,N
1514002876.0,286047000.6,N
1514002895.8,286046999.8,N
1514002915.7,286047001.4,N
1514002935.5,286047000.2,N
1514002955.4,286047004.2,N
1514002975.2,286047004.4,N
1514002995.0,286047003.9,N
1514002995.9,286047003.9,N
1514003015.8,286046999.8,N
1514003035.6,286047000.4,N
1514003055.4,286046999.8,N
1514003075.3,286047002.3,N
1514003095.1,286047001.9,N
1514003115.9,286047001.9,N
1514003135.7,286047001.4,N
1514003155.5,286047004.8,N
1514003175.4,286047003.0,N
1514003195.2,286047003.8,N
1514003215.0,286047002.2,N
1514003216.0,286047002.2,N
1514003235.8,286047002.8,N
1514003255.6,286047001.1,N
1514003275.5,286046999.8,N
1514003295.3,286047004.4,N
1514003315.1,286047001.4,N
1514003335.9,286047003.4,N
1514003355.7,286047004.6,N
1514003375.6,286047004.5,N
1514003395.4,286047004.7,N
1514003415.2,286047006.3,Y
1514003435.1,286047003.2,P
1514003466.0,286047006.8,E
1514003475.0,286047003.5,N
1514003475.9,286047003.5,P
1514003495.8,286046999.2,P
1514003515.6,286046997.1,N
1514003535.4,286046998.0,N
1514003555.3,286046995.8,N
1514003575.1,286046997.4,N
1514003595.9,286046997.9,N
1514003615.7,286046995.0,N
1514003635.5,286046997.9,N
1514003655.4,286046995.7,N
1514003675.2,286046993.3,N
1514003695.0,286046993.9,N
1514003695.9,286046993.9,N
1514003715.8,286046990.3,Y
1514003735.6,286046993.0,P
1514003755.5,286046990.6,P
1514003775.3,286046990.7,P
1514003795.1,286046994.6,N
1514003815.9,286046992.3,Y
1514003835.7,286046998.3,P
1514003855.6,286046999.3,N
1514003875.4,286047000.6,N
1514003895.2,286046998.1,N
1514003915.1,286047000.8,N
1514003916.0,286047000.8,N
1514003935.8,286046997.3,N
1514003955.6,286046996.8,N
1514003975.5,286046996.6,N
1514003995.3,286047000.0,N
1514004015.2,286047002.8,N
1514004035.9,286047000.2,N
1514004055.7,286046998.2,N
1514004075.6,286046999.1,N
1514004095.4,286046999.2,N
1514004115.3,286046995.9,N
1514004135.1,286046996.2,N
1514004136.0,286046996.2,N
1514004155.8,286046996.5,N
1514004175.7,286047001.2,N
1514004195.5,286046999.8,N
1514004215.3,286046999.7,N
1514004235.2,286047001.7,N
1514004255.0,286047000.2,N
1514004255.9,286047000.2,N
1514004275.8,286047004.3,N
1514004295.6,286047000.2,N
1514004315.4,286047000.0,N
1514004335.3,286047000.2,N
1514004355.1,286046998.3,N
1514004375.9,286046999.4,N
1514004395.7,286046998.9,N
1514004415.5,286046998.3,N
1514004435.4,286047000.5,N
1514004455.2,286046998.9,N
1514004475.1,286046998.1,N
1514004476.0,286046998.1,N
1514004495.8,286047000.7,N
1514004515.6,286046999.1,N
1514004535.5,286046998.1,N
1514004555.3,286047000.3,N
1514004575.1,286047000.8,N
1514004595.9,286047002.0,N
1514004615.7,286046999.8,N
1514004635.6,286047002.6,N
1514004655.4,286047002.3,N
1514004675.2,286047003.4,N
1514004695.1,286047001.5,N
1514004696.0,286047001.5,N
1514004715.8,286047003.9,N
1514004735.7,286047006.0,Y
1514004755.5,286047001.3,P
1514004775.3,286046999.7,N
1514004795.2,286047000.3,N
1514004815.0,286046998.1,Y
1514004815.9,286046998.1,P
1514004835.8,286047000.4,N
1514004855.6,286046999.8,N
1514004875.4,286047001.6,N
1514004895.3,286047001.5,N
1514004915.1,286047002.2,N
1514004935.9,286047002.8,N
1514004955.7,286047000.6,N
1514004975.5,286047001.7,N
1514004995.4,286046999.8,N
1514005015.2,286047002.3,N
1514005035.0,286046998.8,N
1514005035.9,286046998.8,N
1514005055.8,286047000.4,N
1514005075.6,286046998.8,N
1514005095.5,286046999.4,N
1514005115.3,286047001.1,N
1514005135.1,286047000.5,N
1514005155.9,286046998.2,N
1514005175.7,286047000.3,N
1514005195.6,286047000.0,N
